Starlink 35093

operational
NORAD ID: 65478 Int'l Des: 2025-195 Owner: SPXS Country: US Constellation: starlink
LEOCIRCULAR

关于 Starlink 35093

正在加载描述...

实时位置

正在加载3D地球...

即将过境

高度历史

Altitude vs Time

uPlot chart will show altitude changes over time

两行轨道根数

1 65478U 25195W 25293.85997624 .00075709 00000-0 18807-2 0 9997
2 65478 53.1609 189.1954 0000710 91.1102 268.9984 15.39673474 8547
Epoch: Oct 20, 2025 • Age: 18 hours

当前状态

高度 463.5 km
速度 7.63 km/s
星下点 -47.73°S, 125.42°W
发射日期 Sep 3, 2025
运行时间 0.1 years
类型 internet

技术详情

分类 Payload
质量 575.00 kg
干质量 530.00 kg
总质量 575.00 kg
长度 0.30 m
直径 4.10 m
跨度 29.00 m
形状 Box + pan
制造商 SPXS
平台类型 Starlink V2MO
阶段状态 In Orbit
所有者/国家 SPXS/US

大型星座

Loading constellations...